Flag for Canada Weather past 2 weeks in Winnipeg, Manitoba, Canada

Now
70 °F

Passing clouds.


Feels Like: 70 °F
Forecast: 50 / 76 °F
Wind: 10 mph from Northwest

Location: Winnipeg Int. Airportman.

Current Time: Jul 28, 2014 at 12:15:31 PM

Latest Report: Jul 28, 2014 at 11:00 AM


Visibility: 15 mi

Pressure: 30.29 "Hg

Humidity: 57%

Dew point: 54 °F

Location of WinnipegLocation

Historic Weather in Winnipeg — Graph

°F

Winnipeg temperature yesterday

Maximum temperature yesterday: 70 °F (at 2:00 PM)
Minimum temperature yesterday: 54 °F (at 11:00 PM)
Average temperature yesterday: 63 °F

Past Weeks' High & Low Weather Summary

 TemperatureHumidityPressure
High88 °F (Jul 20, 2:00 PM)100% (Jul 15, 1:00 AM)30.35 "Hg (Jul 15, 1:00 AM)
Low45 °F (Jul 15, 5:00 AM)34% (Jul 25, 4:00 PM)29.51 "Hg (Jul 20, 1:00 PM)
Average66 °F72%29.92 "Hg
* Reported Jul 13 11:00 AM — Jul 28 11:00 AM, Winnipeg, Weather by CustomWeather, © 2014

Note: Actual official high and low records may vary slightly from our data, if they occured in-between our weather recording intervals... More about our weather records

Advertising

Winnipeg weather history for previous 24 hours

 ConditionsComfort  
Time TempWeatherWind HumidityBarometerVisibility
11:00 AM
Jul 28
70 °FPassing clouds.10 mph57%30.29 "Hg15 mi
10:00 AM68 °FPassing clouds.10 mph60%30.29 "Hg15 mi
9:00 AM63 °FScattered clouds.7 mph83%30.29 "Hg15 mi
8:00 AM55 °FScattered clouds.7 mph88%30.28 "Hg15 mi
7:00 AM50 °FPassing clouds.6 mph94%30.28 "Hg15 mi
6:00 AM46 °FPassing clouds.8 mph93%30.27 "Hg15 mi
5:00 AM46 °FPassing clouds.8 mph100%30.26 "Hg15 mi
4:00 AM48 °FClear.6 mph100%30.26 "Hg15 mi
3:00 AM48 °FPassing clouds.6 mph94%30.25 "Hg15 mi
2:00 AM48 °FClear.8 mph94%30.24 "Hg15 mi
1:00 AM50 °FClear.6 mph100%30.24 "Hg15 mi
12:00 AM52 °FClear.6 mph94%30.24 "Hg15 mi
11:00 PM
Jul 27
54 °FPassing clouds.7 mph94%30.23 "Hg15 mi
10:00 PM57 °FPassing clouds.6 mph88%30.23 "Hg15 mi
9:00 PM61 °FPassing clouds.7 mph83%30.21 "Hg15 mi
8:00 PM66 °FScattered clouds.10 mph64%30.20 "Hg15 mi
7:00 PM68 °FBroken clouds.8 mph56%30.20 "Hg15 mi
6:00 PM68 °FScattered clouds.10 mph56%30.20 "Hg15 mi
5:00 PM68 °FPartly sunny.13 mph53%30.20 "Hg15 mi
4:00 PM70 °FPartly sunny.16 mph50%30.20 "Hg15 mi
3:00 PM70 °FBroken clouds.12 mph50%30.18 "Hg15 mi
2:00 PM70 °FScattered clouds.14 mph53%30.18 "Hg15 mi
1:00 PM68 °FScattered clouds.16 mph53%30.17 "Hg15 mi
12:00 PM68 °FScattered clouds.15 mph56%30.15 "Hg15 mi
Weather by CustomWeather, © 2014

See weather overviewHow to use our weather pages